,,,PA_Meas_PMT16A,,PR_Meas_QMR101_102,,RH_Meas_QMH101,,SR_Meas_QMS101,,TA_Meas_QMH101,,GenWind,,GenWind,
date,time,status,PA,status,PR,status,RH,status,SR,status,TA,status,DirAvg,status,SpdAvg,
2012-11-10, 00:00:04,VALID,1009.22,VALID,0,VALID,104,VALID,0,VALID,23.5771,VALID,152,VALID,0,
2012-11-10, 00:01:04,VALID,1009.19,VALID,0,VALID,104,VALID,0,VALID,23.5753,VALID,152,VALID,0,
2012-11-10, 00:02:04,VALID,1009.21,VALID,0,VALID,104,VALID,0,VALID,23.5771,VALID,152,VALID,0,
2012-11-10, 00:03:04,VALID,1009.19,VALID,0,VALID,104,VALID,0,VALID,23.5966,VALID,152,VALID,0,
2012-11-10, 00:04:04,VALID,1009.19,VALID,0,VALID,104,VALID,0,VALID,23.6143,VALID,152,VALID,0,
2012-11-10, 00:05:04,VALID,1009.17,VALID,0,VALID,104,VALID,0,VALID,23.6532,VALID,152,VALID,0,
2012-11-10, 00:06:04,VALID,1009.19,VALID,0,VALID,104,VALID,0,VALID,23.6532,VALID,152,VALID,0,
2012-11-10, 00:07:04,VALID,1009.2,VALID,0,VALID,104,VALID,0,VALID,23.7135,VALID,152,VALID,0,
2012-11-10, 00:08:04,VALID,1009.19,VALID,0,VALID,104,VALID,0,VALID,23.7135,VALID,152,VALID,0,
2012-11-10, 00:09:04,VALID,1009.21,VALID,0,VALID,104,VALID,0,VALID,23.694,VALID,152,VALID,0,
2012-11-10, 00:10:04,VALID,1009.18,VALID,0,VALID,104,VALID,0,VALID,23.7135,VALID,152,VALID,0,
2012-11-10, 00:11:04,VALID,1009.2,VALID,0,VALID,104,VALID,0,VALID,23.7135,VALID,152,VALID,0,
2012-11-10, 00:12:04,VALID,1009.19,VALID,0,VALID,104,VALID,0,VALID,23.7135,VALID,152,VALID,0,
2012-11-10, 00:13:04,VALID,1009.17,VALID,0,VALID,104,VALID,0,VALID,23.733,VALID,152,VALID,0,
2012-11-10, 00:14:04,VALID,1009.2,VALID,0,VALID,104,VALID,0,VALID,23.694,VALID,152,VALID,0,
2012-11-10, 00:15:04,VALID,1009.19,VALID,0,VALID,104,VALID,0,VALID,23.6922,VALID,152,VALID,0,
2012-11-10, 00:16:04,VALID,1009.16,VALID,0,VALID,104,VALID,0,VALID,23.6727,VALID,152,VALID,0,
2012-11-10, 00:17:04,VALID,1009.15,VALID,0,VALID,104,VALID,0,VALID,23.6727,VALID,152,VALID,0,
2012-11-10, 00:18:04,VALID,1009.14,VALID,0,VALID,104,VALID,0,VALID,23.6745,VALID,152,VALID,0,
2012-11-10, 00:19:04,VALID,1009.14,VALID,0,VALID,104,VALID,0,VALID,23.6745,VALID,152,VALID,0,
2012-11-10, 00:20:04,VALID,1009.13,VALID,0,VALID,104,VALID,0,VALID,23.6745,VALID,152,VALID,0,
2012-11-10, 00:21:04,VALID,1009.1,VALID,0,VALID,104,VALID,0,VALID,23.694,VALID,152,VALID,0,
2012-11-10, 00:22:04,VALID,1009.1,VALID,0,VALID,104,VALID,0,VALID,23.7135,VALID,152,VALID,0,
2012-11-10, 00:23:04,VALID,1009.07,VALID,0,VALID,104,VALID,0,VALID,23.694,VALID,152,VALID,0,
2012-11-10, 00:24:04,VALID,1009.03,VALID,0,VALID,104,VALID,0,VALID,23.6727,VALID,152,VALID,0,
2012-11-10, 00:25:04,VALID,1009.07,VALID,0,VALID,104,VALID,0,VALID,23.694,VALID,152,VALID,0,
2012-11-10, 00:26:04,VALID,1009.05,VALID,0,VALID,104,VALID,0,VALID,23.6745,VALID,152,VALID,0,
2012-11-10, 00:27:04,VALID,1009.03,VALID,0,VALID,104,VALID,0,VALID,23.655,VALID,152,VALID,0,
2012-11-10, 00:28:04,VALID,1009.03,VALID,0,VALID,104,VALID,0,VALID,23.6356,VALID,152,VALID,0,
2012-11-10, 00:29:04,VALID,1009,VALID,0,VALID,104,VALID,0,VALID,23.6356,VALID,152,VALID,0,
2012-11-10, 00:30:04,VALID,1008.97,VALID,0,VALID,104,VALID,0,VALID,23.6161,VALID,152,VALID,0,
2012-11-10, 00:31:04,VALID,1008.97,VALID,0,VALID,104,VALID,0,VALID,23.5771,VALID,152,VALID,0,
2012-11-10, 00:32:04,VALID,1008.94,VALID,0,VALID,104,VALID,0,VALID,23.5771,VALID,152,VALID,0,
2012-11-10, 00:33:04,VALID,1008.91,VALID,0,VALID,104,VALID,0,VALID,23.5576,VALID,152,VALID,0,
2012-11-10, 00:34:04,VALID,1008.92,VALID,0,VALID,104,VALID,0,VALID,23.5576,VALID,152,VALID,0,
2012-11-10, 00:35:04,VALID,1008.9,VALID,0,VALID,104,VALID,0,VALID,23.5381,VALID,152,VALID,0,
2012-11-10, 00:36:04,VALID,1008.87,VALID,0,VALID,104,VALID,0,VALID,23.5576,VALID,152,VALID,0,
2012-11-10, 00:37:04,VALID,1008.88,VALID,0,VALID,104,VALID,0,VALID,23.5381,VALID,152,VALID,0,
2012-11-10, 00:38:04,VALID,1008.89,VALID,0,VALID,104,VALID,0,VALID,23.4992,VALID,152,VALID,0,
2012-11-10, 00:39:04,VALID,1008.86,VALID,0,VALID,104,VALID,0,VALID,23.4797,VALID,152,VALID,0,
2012-11-10, 00:40:04,VALID,1008.87,VALID,0,VALID,104,VALID,0,VALID,23.4602,VALID,152,VALID,0,
2012-11-10, 00:41:04,VALID,1008.86,VALID,0,VALID,104,VALID,0,VALID,23.4602,VALID,152,VALID,0,
2012-11-10, 00:42:04,VALID,1008.89,VALID,0,VALID,104,VALID,0,VALID,23.4602,VALID,152,VALID,0,
2012-11-10, 00:43:04,VALID,1008.88,VALID,0,VALID,104,VALID,0,VALID,23.4602,VALID,152,VALID,0,
2012-11-10, 00:44:04,VALID,1008.85,VALID,0,VALID,104,VALID,0,VALID,23.4797,VALID,152,VALID,0,
2012-11-10, 00:45:04,VALID,1008.84,VALID,0,VALID,104,VALID,0,VALID,23.4992,VALID,152,VALID,0,
2012-11-10, 00:46:04,VALID,1008.82,VALID,0,VALID,104,VALID,0,VALID,23.5186,VALID,152,VALID,0,
2012-11-10, 00:47:04,VALID,1008.79,VALID,0,VALID,104,VALID,0,VALID,23.5186,VALID,152,VALID,0,
2012-11-10, 00:48:04,VALID,1008.77,VALID,0,VALID,104,VALID,0,VALID,23.5186,VALID,152,VALID,0,
2012-11-10, 00:49:04,VALID,1008.74,VALID,0,VALID,104,VALID,0,VALID,23.4797,VALID,152,VALID,0,
2012-11-10, 00:50:04,VALID,1008.74,VALID,0,VALID,104,VALID,0,VALID,23.4992,VALID,152,VALID,0,
2012-11-10, 00:51:04,VALID,1008.73,VALID,0,VALID,104,VALID,0,VALID,23.4602,VALID,152,VALID,0,
2012-11-10, 00:52:04,VALID,1008.72,VALID,0,VALID,104,VALID,0,VALID,23.4602,VALID,152,VALID,0,
2012-11-10, 00:53:04,VALID,1008.71,VALID,0,VALID,104,VALID,0,VALID,23.4797,VALID,152,VALID,0,
2012-11-10, 00:54:04,VALID,1008.7,VALID,0,VALID,104,VALID,0,VALID,23.4992,VALID,152,VALID,0,
2012-11-10, 00:55:04,VALID,1008.69,VALID,0,VALID,104,VALID,0,VALID,23.5381,VALID,152,VALID,0,
2012-11-10, 00:56:04,VALID,1008.66,VALID,0,VALID,104,VALID,0,VALID,23.5576,VALID,152,VALID,0,
2012-11-10, 00:57:04,VALID,1008.65,VALID,0,VALID,104,VALID,0,VALID,23.5771,VALID,152,VALID,0,
2012-11-10, 00:58:04,VALID,1008.63,VALID,0,VALID,104,VALID,0,VALID,23.5771,VALID,152,VALID,0,
2012-11-10, 00:59:04,VALID,1008.59,VALID,0,VALID,104,VALID,0,VALID,23.6161,VALID,152,VALID,0,
2012-11-10, 01:00:04,VALID,1008.6,VALID,0,VALID,104,VALID,0,VALID,23.6161,VALID,152,VALID,0,
2012-11-10, 01:01:04,VALID,1008.6,VALID,0,VALID,104,VALID,0,VALID,23.6161,VALID,152,VALID,0,
2012-11-10, 01:02:04,VALID,1008.57,VALID,0,VALID,104,VALID,0,VALID,23.655,VALID,152,VALID,0,
2012-11-10, 01:03:04,VALID,1008.58,VALID,0,VALID,104,VALID,0,VALID,23.655,VALID,152,VALID,0,
2012-11-10, 01:04:04,VALID,1008.58,VALID,0,VALID,104,VALID,0,VALID,23.6532,VALID,152,VALID,0,
2012-11-10, 01:05:04,VALID,1008.58,VALID,0,VALID,104,VALID,0,VALID,23.694,VALID,152,VALID,0,
2012-11-10, 01:06:04,VALID,1008.57,VALID,0,VALID,104,VALID,0,VALID,23.694,VALID,152,VALID,0,
2012-11-10, 01:07:04,VALID,1008.58,VALID,0,VALID,104,VALID,0,VALID,23.733,VALID,152,VALID,0,
2012-11-10, 01:08:04,VALID,1008.53,VALID,0,VALID,104,VALID,0,VALID,23.7117,VALID,152,VALID,0.0757812,
2012-11-10, 01:09:04,VALID,1008.54,VALID,0,VALID,104,VALID,0,VALID,23.7507,VALID,152,VALID,0.228516,
2012-11-10, 01:10:04,VALID,1008.5,VALID,0,VALID,104,VALID,0,VALID,23.7525,VALID,152,VALID,0.0597656,
2012-11-10, 01:11:04,VALID,1008.48,VALID,0,VALID,104,VALID,0,VALID,23.7701,VALID,152,VALID,0,
2012-11-10, 01:12:04,VALID,1008.47,VALID,0,VALID,104,VALID,0,VALID,23.772,VALID,152,VALID,0.270703,
2012-11-10, 01:13:04,VALID,1008.46,VALID,0,VALID,104,VALID,0,VALID,23.7914,VALID,152,VALID,0.320313,
2012-11-10, 01:14:04,VALID,1008.43,VALID,0,VALID,104,VALID,0,VALID,23.8109,VALID,151,VALID,0.219531,
2012-11-10, 01:15:04,VALID,1008.42,VALID,0,VALID,104,VALID,0,VALID,23.8286,VALID,151,VALID,0.0265625,
2012-11-10, 01:16:04,VALID,1008.41,VALID,0,VALID,104,VALID,0,VALID,23.9278,VALID,152,VALID,0,
2012-11-10, 01:17:04,VALID,1008.39,VALID,0,VALID,104,VALID,0,VALID,23.8109,VALID,151,VALID,0,
2012-11-10, 01:18:04,VALID,1008.4,VALID,0,VALID,104,VALID,0,VALID,23.8109,VALID,152,VALID,0,
2012-11-10, 01:19:04,VALID,1008.37,VALID,0,VALID,104,VALID,0,VALID,23.8304,VALID,151,VALID,0,
2012-11-10, 01:20:04,VALID,1008.36,VALID,0,VALID,104,VALID,0,VALID,23.7896,VALID,152,VALID,0,
2012-11-10, 01:21:04,VALID,1008.34,VALID,0,VALID,104,VALID,0,VALID,23.7896,VALID,151,VALID,0.0308594,
2012-11-10, 01:22:04,VALID,1008.32,VALID,0,VALID,104,VALID,0,VALID,23.7914,VALID,151,VALID,0.372656,
2012-11-10, 01:23:04,VALID,1008.3,VALID,0,VALID,104,VALID,0,VALID,23.7507,VALID,151,VALID,0.321094,
2012-11-10, 01:24:04,VALID,1008.3,VALID,0,VALID,104,VALID,0,VALID,23.7507,VALID,151,VALID,0.360938,
2012-11-10, 01:25:04,VALID,1008.28,VALID,0,VALID,104,VALID,0,VALID,23.7914,VALID,151,VALID,0.466797,
2012-11-10, 01:26:04,VALID,1008.28,VALID,0,VALID,104,VALID,0,VALID,23.7117,VALID,151,VALID,0.270312,
2012-11-10, 01:27:04,VALID,1008.31,VALID,0,VALID,104,VALID,0,VALID,23.6727,VALID,151,VALID,0.178516,
2012-11-10, 01:28:04,VALID,1008.31,VALID,0,VALID,104,VALID,0,VALID,23.6922,VALID,152,VALID,0,
2012-11-10, 01:29:04,VALID,1008.31,VALID,0,VALID,104,VALID,0,VALID,23.694,VALID,151,VALID,0.258203,
2012-11-10, 01:30:04,VALID,1008.32,VALID,0,VALID,104,VALID,0,VALID,23.6727,VALID,151,VALID,0,
2012-11-10, 01:31:04,VALID,1008.33,VALID,0,VALID,104,VALID,0,VALID,23.694,VALID,151,VALID,0.0234375,
2012-11-10, 01:32:04,VALID,1008.36,VALID,0,VALID,104,VALID,0,VALID,23.655,VALID,151,VALID,0.316016,
2012-11-10, 01:33:04,VALID,1008.32,VALID,0,VALID,104,VALID,0,VALID,23.6745,VALID,151,VALID,0.192969,
2012-11-10, 01:34:04,VALID,1008.36,VALID,0,VALID,104,VALID,0,VALID,23.6745,VALID,152,VALID,0,
2012-11-10, 01:35:04,VALID,1008.35,VALID,0,VALID,104,VALID,0,VALID,23.655,VALID,151,VALID,0,
2012-11-10, 01:36:04,VALID,1008.35,VALID,0,VALID,104,VALID,0,VALID,23.694,VALID,151,VALID,0,
2012-11-10, 01:37:04,VALID,1008.33,VALID,0,VALID,104,VALID,0,VALID,23.6745,VALID,151,VALID,0,
2012-11-10, 01:38:04,VALID,1008.36,VALID,0,VALID,104,VALID,0,VALID,23.655,VALID,151,VALID,0,
2012-11-10, 01:39:04,VALID,1008.35,VALID,0,VALID,104,VALID,0,VALID,23.655,VALID,151,VALID,0,
2012-11-10, 01:40:04,VALID,1008.35,VALID,0,VALID,104,VALID,0,VALID,23.6532,VALID,152,VALID,0,
2012-11-10, 01:41:04,VALID,1008.36,VALID,0,VALID,104,VALID,0,VALID,23.655,VALID,151,VALID,0,
2012-11-10, 01:42:04,VALID,1008.34,VALID,0,VALID,104,VALID,0,VALID,23.6356,VALID,151,VALID,0,
2012-11-10, 01:43:04,VALID,1008.31,VALID,0,VALID,104,VALID,0,VALID,23.6143,VALID,151,VALID,0,
2012-11-10, 01:44:04,VALID,1008.31,VALID,0,VALID,104,VALID,0,VALID,23.655,VALID,152,VALID,0.0867188,
2012-11-10, 01:45:04,VALID,1008.31,VALID,0,VALID,104,VALID,0,VALID,23.655,VALID,151,VALID,0.216406,
2012-11-10, 01:46:04,VALID,1008.35,VALID,0,VALID,104,VALID,0,VALID,23.6338,VALID,151,VALID,0.267188,
2012-11-10, 01:47:04,VALID,1008.32,VALID,0,VALID,104,VALID,0,VALID,23.6356,VALID,151,VALID,0,
2012-11-10, 01:48:04,VALID,1008.35,VALID,0,VALID,104,VALID,0,VALID,23.6161,VALID,151,VALID,0,
2012-11-10, 01:49:04,VALID,1008.35,VALID,0,VALID,104,VALID,0,VALID,23.6356,VALID,151,VALID,0,
2012-11-10, 01:50:04,VALID,1008.33,VALID,0,VALID,104,VALID,0,VALID,23.6356,VALID,151,VALID,0,
2012-11-10, 01:51:04,VALID,1008.34,VALID,0,VALID,104,VALID,0,VALID,23.6161,VALID,151,VALID,0,
2012-11-10, 01:52:04,VALID,1008.33,VALID,0,VALID,104,VALID,0,VALID,23.6161,VALID,151,VALID,0,
2012-11-10, 01:53:04,VALID,1008.32,VALID,0,VALID,104,VALID,0,VALID,23.5966,VALID,151,VALID,0,
2012-11-10, 01:54:04,VALID,1008.34,VALID,0,VALID,104,VALID,0,VALID,23.5966,VALID,151,VALID,0.292188,
2012-11-10, 01:55:04,VALID,1008.34,VALID,0,VALID,104,VALID,0,VALID,23.5753,VALID,151,VALID,0.272656,
2012-11-10, 01:56:04,VALID,1008.32,VALID,0,VALID,104,VALID,0,VALID,23.5771,VALID,151,VALID,0.0730469,
2012-11-10, 01:57:04,VALID,1008.32,VALID,0,VALID,104,VALID,0,VALID,23.5771,VALID,151,VALID,0,
2012-11-10, 01:58:04,VALID,1008.34,VALID,0,VALID,104,VALID,0,VALID,23.5576,VALID,152,VALID,0,
2012-11-10, 01:59:04,VALID,1008.33,VALID,0,VALID,104,VALID,0,VALID,23.5363,VALID,152,VALID,0,
2012-11-10, 02:00:04,VALID,1008.33,VALID,0,VALID,104,VALID,0,VALID,23.5576,VALID,152,VALID,0.00976563,
2012-11-10, 02:01:04,VALID,1008.31,VALID,0,VALID,104,VALID,0,VALID,23.5771,VALID,151,VALID,0.0140625,
2012-11-10, 02:02:04,VALID,1008.3,VALID,0,VALID,104,VALID,0,VALID,23.5576,VALID,151,VALID,0.380078,
2012-11-10, 02:03:04,VALID,1008.31,VALID,0,VALID,104,VALID,0,VALID,23.5576,VALID,143,VALID,0.280859,
2012-11-10, 02:04:04,VALID,1008.27,VALID,0,VALID,104,VALID,0,VALID,23.5558,VALID,143,VALID,0.371094,
2012-11-10, 02:05:04,VALID,1008.32,VALID,0,VALID,104,VALID,0,VALID,23.5771,VALID,115,VALID,0.439063,
2012-11-10, 02:06:04,VALID,1008.29,VALID,0,VALID,104,VALID,0,VALID,23.5771,VALID,68,VALID,0.564844,
2012-11-10, 02:07:04,VALID,1008.27,VALID,0,VALID,104,VALID,0,VALID,23.5753,VALID,68,VALID,0.462109,
2012-11-10, 02:08:04,VALID,1008.29,VALID,0,VALID,104,VALID,0,VALID,23.5576,VALID,58,VALID,0.36875,
2012-11-10, 02:09:04,VALID,1008.27,VALID,0,VALID,104,VALID,0,VALID,23.5771,VALID,44,VALID,0.614844,
2012-11-10, 02:10:04,VALID,1008.23,VALID,0,VALID,104,VALID,0,VALID,23.5771,VALID,44,VALID,0.279687,
2012-11-10, 02:11:04,VALID,1008.21,VALID,0,VALID,104,VALID,0,VALID,23.5771,VALID,44,VALID,0.691797,
2012-11-10, 02:12:04,VALID,1008.19,VALID,0,VALID,104,VALID,0,VALID,23.5558,VALID,44,VALID,0.484375,
2012-11-10, 02:13:04,VALID,1008.18,VALID,0,VALID,104,VALID,0,VALID,23.6161,VALID,44,VALID,0.527344,
2012-11-10, 02:14:04,VALID,1008.15,VALID,0,VALID,104,VALID,0,VALID,23.6161,VALID,44,VALID,0.208203,
2012-11-10, 02:15:04,VALID,1008.14,VALID,0,VALID,104,VALID,0,VALID,23.6356,VALID,44,VALID,0,
2012-11-10, 02:16:04,VALID,1008.12,VALID,0,VALID,104,VALID,0,VALID,23.6161,VALID,44,VALID,0.233594,
2012-11-10, 02:17:04,VALID,1008.12,VALID,0,VALID,104,VALID,0,VALID,23.5948,VALID,44,VALID,0,
2012-11-10, 02:18:04,VALID,1008.11,VALID,0,VALID,104,VALID,0,VALID,23.6143,VALID,44,VALID,0.364844,
2012-11-10, 02:19:04,VALID,1008.1,VALID,0,VALID,104,VALID,0,VALID,23.5948,VALID,44,VALID,0.0148437,
2012-11-10, 02:20:04,VALID,1008.13,VALID,0,VALID,104,VALID,0.112112,VALID,23.5948,VALID,44,VALID,0.344922,
2012-11-10, 02:21:04,VALID,1008.13,VALID,0,VALID,104,VALID,0,VALID,23.5966,VALID,44,VALID,0.301172,
2012-11-10, 02:22:04,VALID,1008.14,VALID,0,VALID,104,VALID,0,VALID,23.5558,VALID,44,VALID,0.423828,
2012-11-10, 02:23:04,VALID,1008.18,VALID,0,VALID,104,VALID,0,VALID,23.5771,VALID,44,VALID,0.595703,
2012-11-10, 02:24:04,VALID,1008.19,VALID,0,VALID,104,VALID,0,VALID,23.5558,VALID,44,VALID,0.455859,
2012-11-10, 02:25:04,VALID,1008.22,VALID,0,VALID,104,VALID,0,VALID,23.5771,VALID,44,VALID,0.475781,
2012-11-10, 02:26:04,VALID,1008.19,VALID,0,VALID,104,VALID,0,VALID,23.4974,VALID,44,VALID,0.326172,
2012-11-10, 02:27:04,VALID,1008.2,VALID,0,VALID,104,VALID,0,VALID,23.5186,VALID,44,VALID,0.399219,
2012-11-10, 02:28:04,VALID,1008.18,VALID,0,VALID,104,VALID,0,VALID,23.5771,VALID,44,VALID,0.271094,
2012-11-10, 02:29:04,VALID,1008.19,VALID,0,VALID,104,VALID,0,VALID,23.5169,VALID,44,VALID,0.716406,
2012-11-10, 02:30:04,VALID,1008.18,VALID,0,VALID,104,VALID,0,VALID,23.5576,VALID,44,VALID,0.322266,
2012-11-10, 02:31:04,VALID,1008.18,VALID,0,VALID,104,VALID,0,VALID,23.5576,VALID,44,VALID,0.472266,
2012-11-10, 02:32:04,VALID,1008.21,VALID,0,VALID,104,VALID,0,VALID,23.5576,VALID,71,VALID,0.627734,
2012-11-10, 02:33:04,VALID,1008.19,VALID,0,VALID,104,VALID,0,VALID,23.5966,VALID,72,VALID,0.725781,
2012-11-10, 02:34:04,VALID,1008.21,VALID,0,VALID,104,VALID,0.112112,VALID,23.5576,VALID,71,VALID,0.767969,
2012-11-10, 02:35:04,VALID,1008.23,VALID,0,VALID,104,VALID,0,VALID,23.5576,VALID,71,VALID,0.721484,
2012-11-10, 02:36:04,VALID,1008.21,VALID,0,VALID,104,VALID,0,VALID,23.5771,VALID,70,VALID,0.822266,
2012-11-10, 02:37:04,VALID,1008.21,VALID,0,VALID,104,VALID,0,VALID,23.5558,VALID,71,VALID,0.455859,
2012-11-10, 02:38:04,VALID,1008.22,VALID,0,VALID,104,VALID,0,VALID,23.5753,VALID,110,VALID,0.701172,
2012-11-10, 02:39:04,VALID,1008.22,VALID,0,VALID,104,VALID,0,VALID,23.5558,VALID,57,VALID,0.326953,
2012-11-10, 02:40:04,VALID,1008.19,VALID,0,VALID,104,VALID,0,VALID,23.5966,VALID,81,VALID,0.748438,
2012-11-10, 02:41:04,VALID,1008.18,VALID,0,VALID,104,VALID,0,VALID,23.5558,VALID,73,VALID,0.376172,
2012-11-10, 02:42:04,VALID,1008.15,VALID,0,VALID,104,VALID,0.112112,VALID,23.5576,VALID,73,VALID,0.635547,
2012-11-10, 02:43:04,VALID,1008.13,VALID,0,VALID,104,VALID,0,VALID,23.5771,VALID,73,VALID,0.586719,
2012-11-10, 02:44:04,VALID,1008.13,VALID,0,VALID,104,VALID,0,VALID,23.5558,VALID,73,VALID,0.34375,
2012-11-10, 02:45:04,VALID,1008.13,VALID,0,VALID,104,VALID,0,VALID,23.5966,VALID,64,VALID,0.454297,
2012-11-10, 02:46:04,VALID,1008.11,VALID,0,VALID,104,VALID,0,VALID,23.5558,VALID,63,VALID,0.537891,
2012-11-10, 02:47:04,VALID,1008.08,VALID,0,VALID,104,VALID,0,VALID,23.5771,VALID,63,VALID,0.454297,
2012-11-10, 02:48:04,VALID,1008.06,VALID,0,VALID,104,VALID,0,VALID,23.5576,VALID,63,VALID,0.387109,
2012-11-10, 02:49:04,VALID,1008.04,VALID,0,VALID,104,VALID,0,VALID,23.4974,VALID,63,VALID,0.233594,
2012-11-10, 02:50:04,VALID,1008.07,VALID,0,VALID,104,VALID,0,VALID,23.5381,VALID,63,VALID,0.214844,
2012-11-10, 02:51:04,VALID,1008.05,VALID,0,VALID,104,VALID,0,VALID,23.5576,VALID,62,VALID,0.767969,
2012-11-10, 02:52:04,VALID,1008.09,VALID,0,VALID,104,VALID,0,VALID,23.5576,VALID,93,VALID,0.877344,
2012-11-10, 02:53:04,VALID,1008.09,VALID,0,VALID,104,VALID,0,VALID,23.5363,VALID,73,VALID,0.861719,
2012-11-10, 02:54:04,VALID,1008.08,VALID,0,VALID,104,VALID,0,VALID,23.5381,VALID,72,VALID,0.535937,
2012-11-10, 02:55:04,VALID,1008.1,VALID,0,VALID,103.992,VALID,0,VALID,23.5381,VALID,72,VALID,0.592969,
2012-11-10, 02:56:04,VALID,1008.12,VALID,0,VALID,104,VALID,0,VALID,23.4992,VALID,72,VALID,0.531641,
2012-11-10, 02:57:04,VALID,1008.1,VALID,0,VALID,104,VALID,0,VALID,23.5186,VALID,72,VALID,0.00585938,
2012-11-10, 02:58:04,VALID,1008.12,VALID,0,VALID,104,VALID,0,VALID,23.5186,VALID,72,VALID,0,
2012-11-10, 02:59:04,VALID,1008.14,VALID,0,VALID,104,VALID,0,VALID,23.5381,VALID,72,VALID,0,
2012-11-10, 03:00:04,VALID,1008.13,VALID,0,VALID,104,VALID,0,VALID,23.5381,VALID,72,VALID,0,
2012-11-10, 03:01:04,VALID,1008.17,VALID,0,VALID,104,VALID,0,VALID,23.5186,VALID,72,VALID,0,
2012-11-10, 03:02:04,VALID,1008.16,VALID,0,VALID,104,VALID,0,VALID,23.5186,VALID,72,VALID,0,
2012-11-10, 03:03:04,VALID,1008.18,VALID,0,VALID,104,VALID,0,VALID,23.4974,VALID,72,VALID,0,
2012-11-10, 03:04:04,VALID,1008.21,VALID,0,VALID,104,VALID,0,VALID,23.5186,VALID,72,VALID,0,
2012-11-10, 03:05:04,VALID,1008.21,VALID,0,VALID,104,VALID,0,VALID,23.5186,VALID,72,VALID,0,
2012-11-10, 03:06:04,VALID,1008.19,VALID,0,VALID,104,VALID,0,VALID,23.4779,VALID,72,VALID,0,
2012-11-10, 03:07:04,VALID,1008.2,VALID,0,VALID,104,VALID,0,VALID,23.4974,VALID,72,VALID,0,
2012-11-10, 03:08:04,VALID,1008.21,VALID,0,VALID,104,VALID,0.112112,VALID,23.5169,VALID,72,VALID,0,
2012-11-10, 03:09:04,VALID,1008.22,VALID,0,VALID,103.977,VALID,0,VALID,23.5186,VALID,72,VALID,0,
2012-11-10, 03:10:04,VALID,1008.22,VALID,0,VALID,103.977,VALID,0,VALID,23.5186,VALID,72,VALID,0,
2012-11-10, 03:11:04,VALID,1008.22,VALID,0,VALID,104,VALID,0,VALID,23.4992,VALID,72,VALID,0,
2012-11-10, 03:12:04,VALID,1008.24,VALID,0,VALID,104,VALID,0.112112,VALID,23.4992,VALID,72,VALID,0,
2012-11-10, 03:13:04,VALID,1008.26,VALID,0,VALID,103.985,VALID,0,VALID,23.4992,VALID,72,VALID,0,
2012-11-10, 03:14:04,VALID,1008.27,VALID,0,VALID,104,VALID,0,VALID,23.4779,VALID,72,VALID,0,
2012-11-10, 03:15:04,VALID,1008.23,VALID,0,VALID,103.992,VALID,0,VALID,23.4992,VALID,72,VALID,0,
2012-11-10, 03:16:04,VALID,1008.27,VALID,0,VALID,104,VALID,0,VALID,23.4797,VALID,72,VALID,0,
2012-11-10, 03:17:04,VALID,1008.26,VALID,0,VALID,104,VALID,0,VALID,23.4584,VALID,72,VALID,0,
2012-11-10, 03:18:04,VALID,1008.25,VALID,0,VALID,104,VALID,0,VALID,23.4797,VALID,72,VALID,0,
2012-11-10, 03:19:04,VALID,1008.26,VALID,0,VALID,104,VALID,0,VALID,23.4602,VALID,72,VALID,0,
2012-11-10, 03:20:04,VALID,1008.24,VALID,0,VALID,103.992,VALID,0,VALID,23.5186,VALID,72,VALID,0,
2012-11-10, 03:21:04,VALID,1008.24,VALID,0,VALID,104,VALID,0,VALID,23.4797,VALID,72,VALID,0,
2012-11-10, 03:22:04,VALID,1008.23,VALID,0,VALID,103.985,VALID,0,VALID,23.4389,VALID,72,VALID,0.233203,
2012-11-10, 03:23:04,VALID,1008.22,VALID,0,VALID,104,VALID,0,VALID,23.4584,VALID,72,VALID,0.178125,
2012-11-10, 03:24:04,VALID,1008.26,VALID,0,VALID,104,VALID,0,VALID,23.4602,VALID,72,VALID,0.428906,
2012-11-10, 03:25:04,VALID,1008.24,VALID,0,VALID,104,VALID,0,VALID,23.4407,VALID,72,VALID,0.410937,
2012-11-10, 03:26:04,VALID,1008.27,VALID,0,VALID,104,VALID,0,VALID,23.4602,VALID,73,VALID,0.523438,
2012-11-10, 03:27:04,VALID,1008.27,VALID,0,VALID,104,VALID,0,VALID,23.4602,VALID,73,VALID,0.251563,
2012-11-10, 03:28:04,VALID,1008.3,VALID,0,VALID,104,VALID,0,VALID,23.4194,VALID,73,VALID,0.205859,
2012-11-10, 03:29:04,VALID,1008.28,VALID,0,VALID,103.97,VALID,0,VALID,23.4407,VALID,73,VALID,0.308203,
2012-11-10, 03:30:04,VALID,1008.26,VALID,0,VALID,104,VALID,0,VALID,23.4212,VALID,73,VALID,0.396094,
2012-11-10, 03:31:04,VALID,1008.28,VALID,0,VALID,104,VALID,0,VALID,23.3823,VALID,73,VALID,0.287891,
2012-11-10, 03:32:04,VALID,1008.26,VALID,0,VALID,104,VALID,0,VALID,23.3823,VALID,73,VALID,0.285547,
2012-11-10, 03:33:04,VALID,1008.23,VALID,0,VALID,104,VALID,0,VALID,23.3415,VALID,73,VALID,0,
2012-11-10, 03:34:04,VALID,1008.23,VALID,0,VALID,104,VALID,0,VALID,23.3415,VALID,73,VALID,0.00234375,
2012-11-10, 03:35:04,VALID,1008.22,VALID,0,VALID,103.992,VALID,0,VALID,23.361,VALID,73,VALID,0.267188,
2012-11-10, 03:36:04,VALID,1008.24,VALID,0,VALID,104,VALID,0,VALID,23.361,VALID,73,VALID,0.509766,
2012-11-10, 03:37:04,VALID,1008.21,VALID,0,VALID,104,VALID,0,VALID,23.322,VALID,73,VALID,0.119922,
2012-11-10, 03:38:04,VALID,1008.24,VALID,0,VALID,104,VALID,0,VALID,23.3823,VALID,73,VALID,0.0667969,
2012-11-10, 03:39:04,VALID,1008.24,VALID,0,VALID,103.962,VALID,0,VALID,23.3823,VALID,73,VALID,0,
2012-11-10, 03:40:04,VALID,1008.22,VALID,0,VALID,103.97,VALID,0,VALID,23.3823,VALID,73,VALID,0,
2012-11-10, 03:41:04,VALID,1008.2,VALID,0,VALID,103.954,VALID,0,VALID,23.4212,VALID,73,VALID,0,
2012-11-10, 03:42:04,VALID,1008.2,VALID,0,VALID,104,VALID,0,VALID,23.4017,VALID,73,VALID,0,
2012-11-10, 03:43:04,VALID,1008.2,VALID,0,VALID,104,VALID,0,VALID,23.3823,VALID,73,VALID,0,
2012-11-10, 03:44:04,VALID,1008.18,VALID,0,VALID,104,VALID,0,VALID,23.4017,VALID,73,VALID,0,
2012-11-10, 03:45:04,VALID,1008.13,VALID,0,VALID,103.992,VALID,0,VALID,23.3823,VALID,73,VALID,0,
2012-11-10, 03:46:04,VALID,1008.12,VALID,0,VALID,103.992,VALID,0,VALID,23.3823,VALID,73,VALID,0,
2012-11-10, 03:47:04,VALID,1008.13,VALID,0,VALID,103.962,VALID,0,VALID,23.4017,VALID,73,VALID,0,
2012-11-10, 03:48:04,VALID,1008.12,VALID,0,VALID,103.947,VALID,0,VALID,23.4212,VALID,73,VALID,0,
2012-11-10, 03:49:04,VALID,1008.11,VALID,0,VALID,103.916,VALID,0,VALID,23.3823,VALID,73,VALID,0,
2012-11-10, 03:50:04,VALID,1008.1,VALID,0,VALID,103.992,VALID,0,VALID,23.4017,VALID,73,VALID,0.194922,
2012-11-10, 03:51:04,VALID,1008.12,VALID,0,VALID,103.939,VALID,0,VALID,23.4,VALID,73,VALID,0,
2012-11-10, 03:52:04,VALID,1008.11,VALID,0,VALID,103.985,VALID,0,VALID,23.4,VALID,73,VALID,0,
2012-11-10, 03:53:04,VALID,1008.12,VALID,0,VALID,103.954,VALID,0,VALID,23.4017,VALID,73,VALID,0.00351562,
2012-11-10, 03:54:04,VALID,1008.11,VALID,0,VALID,103.962,VALID,0,VALID,23.4017,VALID,73,VALID,0.0105469,
2012-11-10, 03:55:04,VALID,1008.12,VALID,0,VALID,103.977,VALID,0,VALID,23.3823,VALID,73,VALID,0,
2012-11-10, 03:56:04,VALID,1008.11,VALID,0,VALID,103.992,VALID,0,VALID,23.3823,VALID,73,VALID,0,
2012-11-10, 03:57:04,VALID,1008.1,VALID,0,VALID,104,VALID,0,VALID,23.361,VALID,73,VALID,0,
2012-11-10, 03:58:04,VALID,1008.1,VALID,0,VALID,103.992,VALID,0,VALID,23.3628,VALID,73,VALID,0.200391,
2012-11-10, 03:59:04,VALID,1008.1,VALID,0,VALID,104,VALID,0,VALID,23.3823,VALID,73,VALID,0.373437,
2012-11-10, 04:00:04,VALID,1008.1,VALID,0,VALID,103.977,VALID,0,VALID,23.3823,VALID,72,VALID,0.0046875,
2012-11-10, 04:01:04,VALID,1008.1,VALID,0,VALID,103.97,VALID,0,VALID,23.361,VALID,73,VALID,0,
2012-11-10, 04:02:04,VALID,1008.12,VALID,0,VALID,103.992,VALID,0,VALID,23.3823,VALID,139,VALID,0.785156,